Left ArrowRight Arrow

33.98154, -81.23621

Hourly Observations for June 12, 2024

Temp ( °F °C ) Dew Point ( °F °C ) Humidity (%) Winds ( mph kmh ) Pressure ( in mb ) Visibility ( mi km ) Precip ( " mm )
12:56 am 00:56 Clear 71 21.7 65 18.3 81 81 Calm 29.94 1014 10 16 0.00 0.00
1:56 am 01:56 Clear 70 21.1 65 18.3 84 84 Calm 29.94 1014 10 16 0.00 0.00
2:56 am 02:56 Clear 67 19.4 64 17.8 90 90 Calm 29.93 1013 10 16 0.00 0.00
3:56 am 03:56 Clear 66 18.9 64 17.8 93 93 Calm 29.92 1013 10 16 0.00 0.00
4:56 am 04:56 Clear 66 18.9 63 17.2 90 90 Calm 29.93 1014 10 16 0.00 0.00
5:56 am 05:56 Mostly Cloudy 64 17.8 63 17.2 96 96 WSW 3 6 29.95 1014 10 16 0.00 0.00
6:56 am 06:56 Mostly Cloudy 65 18.3 63 17.2 93 93 Calm 29.97 1015 9 14 0.00 0.00
7:56 am 07:56 Mostly Cloudy 70 21.1 66 18.9 87 87 SE 3 6 29.98 1015 10 16 0.00 0.00
8:56 am 08:56 Partly Cloudy 75 23.9 67 19.4 76 76 ESE 6 9 30.00 1016 10 16 0.00 0.00
9:56 am 09:56 Partly Cloudy 77 25 66 18.9 69 69 ESE 5 7 30.01 1016 10 16 0.00 0.00
10:56 am 10:56 Partly Cloudy 81 27.2 66 18.9 61 61 VRB 5 7 30.01 1016 10 16 0.00 0.00
11:56 am 11:56 Mostly Sunny 84 28.9 65 18.3 53 53 NE 7 11 30.00 1016 10 16 0.00 0.00
12:56 pm 12:56 Partly Cloudy 86 30 65 18.3 50 50 SE 10 17 29.99 1016 10 16 0.00 0.00
1:56 pm 13:56 Mostly Cloudy 86 30 62 16.7 45 45 E 5 7 29.98 1015 10 16 0.00 0.00
2:56 pm 14:56 Mostly Cloudy 87 30.6 62 16.7 43 43 VRB 5 7 29.97 1015 10 16 0.00 0.00
3:56 pm 15:56 Mostly Cloudy 88 31.1 62 16.7 42 42 VRB 6 9 29.95 1014 10 16 0.00 0.00
4:56 pm 16:56 Mostly Cloudy 89 31.7 62 16.7 41 41 E 12 19 29.94 1014 10 16 0.00 0.00
5:56 pm 17:56 Mostly Cloudy 88 31.1 63 17.2 43 43 SE 6 9 29.94 1014 10 16 0.00 0.00
6:56 pm 18:56 Mostly Cloudy 87 30.6 61 16.1 42 42 SE 10 17 29.94 1014 10 16 0.00 0.00
7:56 pm 19:56 Mostly Cloudy 84 28.9 63 17.2 49 49 ESE 8 13 29.95 1014 10 16 0.00 0.00
8:56 pm 20:56 Mostly Cloudy 82 27.8 65 18.3 56 56 ESE 7 11 29.96 1015 10 16 0.00 0.00
9:56 pm 21:56 Mostly Cloudy 80 26.7 64 17.8 58 58 ESE 8 13 29.96 1015 10 16 0.00 0.00
10:56 pm 22:56 Partly Cloudy 77 25 66 18.9 69 69 E 6 9 29.97 1015 10 16 0.00 0.00
11:56 pm 23:56 Mostly Cloudy 75 23.9 66 18.9 74 74 E 5 7 29.98 1015 10 16 0.00 0.00

Powered by Vaisala Xweather